Time,TemperatureF,DewpointF,PressureIn,WindDirection,WindDirectionDegrees,WindSpeedMPH,WindSpeedGustMPH,Humidity,HourlyPrecipIn,Conditions,Clouds,dailyrainin,SoftwareType,DateUTC
2013-10-03 00:00:00,60.1,56.8,30.01,SE,135,0.0,0.0,89,0.00,,CLR,0.00,VWS V14.01,2013-10-03 04:00:00,
2013-10-03 00:01:00,60.1,56.8,30.01,SE,135,0.0,0.0,89,0.00,,CLR,0.00,VWS V14.01,2013-10-03 04:01:00,
2013-10-03 00:06:00,60.3,57.2,30.01,SE,135,0.0,0.0,90,0.00,,CLR,0.00,VWS V14.01,2013-10-03 04:06:00,
2013-10-03 00:11:00,60.4,57.6,30.01,SE,135,0.0,0.0,90,0.00,,CLR,0.00,VWS V14.01,2013-10-03 04:11:00,
2013-10-03 00:16:00,60.6,58.0,30.01,SE,135,0.0,0.0,91,0.00,,CLR,0.00,VWS V14.01,2013-10-03 04:16:00,
2013-10-03 00:21:00,60.6,58.0,30.01,SE,135,0.0,0.0,91,0.00,,CLR,0.00,VWS V14.01,2013-10-03 04:21:00,
2013-10-03 00:26:00,60.6,57.8,30.01,SE,135,0.0,0.0,90,0.00,,CLR,0.00,VWS V14.01,2013-10-03 04:26:00,
2013-10-03 00:31:00,60.6,57.8,30.01,SE,135,0.0,0.0,90,0.00,,CLR,0.00,VWS V14.01,2013-10-03 04:31:00,
2013-10-03 00:36:00,60.6,57.5,30.01,SE,135,0.0,0.0,90,0.00,,CLR,0.00,VWS V14.01,2013-10-03 04:36:00,
2013-10-03 00:41:00,60.1,55.5,30.01,SE,135,0.0,0.0,85,0.00,,CLR,0.00,VWS V14.01,2013-10-03 04:41:00,
2013-10-03 00:46:00,59.7,54.3,30.01,SE,135,0.0,0.0,82,0.00,,CLR,0.00,VWS V14.01,2013-10-03 04:46:00,
2013-10-03 00:51:00,59.4,53.7,30.03,SE,135,0.0,0.0,81,0.00,,CLR,0.00,VWS V14.01,2013-10-03 04:51:00,
2013-10-03 00:56:00,59.0,53.6,30.03,SE,135,0.0,0.0,82,0.00,,CLR,0.00,VWS V14.01,2013-10-03 04:56:00,
2013-10-03 01:01:00,58.8,53.8,30.03,SE,135,0.0,0.0,83,0.00,,CLR,0.00,VWS V14.01,2013-10-03 05:01:00,
2013-10-03 01:06:00,58.6,54.1,30.03,SE,135,0.0,0.0,85,0.00,,CLR,0.00,VWS V14.01,2013-10-03 05:06:00,
2013-10-03 01:11:00,58.6,54.8,30.03,SE,135,0.0,0.0,87,0.00,,CLR,0.00,VWS V14.01,2013-10-03 05:11:00,
2013-10-03 01:16:00,58.6,55.2,30.03,SE,135,0.0,0.0,88,0.00,,CLR,0.00,VWS V14.01,2013-10-03 05:16:00,
2013-10-03 01:21:00,58.8,55.8,30.03,SE,135,0.0,0.0,90,0.00,,CLR,0.00,VWS V14.01,2013-10-03 05:21:00,
2013-10-03 01:26:00,58.8,55.8,30.03,SE,135,0.0,0.0,90,0.00,,CLR,0.00,VWS V14.01,2013-10-03 05:26:00,
2013-10-03 01:31:00,59.0,56.4,30.03,SE,135,0.0,0.0,91,0.00,,CLR,0.00,VWS V14.01,2013-10-03 05:31:00,
2013-10-03 01:36:00,59.2,56.5,30.03,SE,135,0.0,0.0,91,0.00,,CLR,0.00,VWS V14.01,2013-10-03 05:36:00,
2013-10-03 01:41:00,59.2,56.5,30.03,SE,135,0.0,0.0,91,0.00,,CLR,0.00,VWS V14.01,2013-10-03 05:41:00,
2013-10-03 01:46:00,59.2,56.1,30.03,SE,135,0.0,0.0,90,0.00,,CLR,0.00,VWS V14.01,2013-10-03 05:46:00,
2013-10-03 01:51:00,59.2,55.9,30.03,SE,135,0.0,0.0,89,0.00,,CLR,0.00,VWS V14.01,2013-10-03 05:51:00,
2013-10-03 01:56:00,59.2,55.5,30.03,SE,135,0.0,0.0,88,0.00,,CLR,0.00,VWS V14.01,2013-10-03 05:56:00,
2013-10-03 02:01:00,59.0,55.1,30.03,SE,135,0.0,0.0,87,0.00,,CLR,0.00,VWS V14.01,2013-10-03 06:01:00,
2013-10-03 02:06:00,59.0,54.9,30.03,SE,135,0.0,0.0,86,0.00,,CLR,0.00,VWS V14.01,2013-10-03 06:06:00,
2013-10-03 02:11:00,58.8,54.5,30.03,SE,135,0.0,0.0,86,0.00,,CLR,0.00,VWS V14.01,2013-10-03 06:11:00,
2013-10-03 02:16:00,58.6,54.1,30.03,SE,135,0.0,0.0,85,0.00,,CLR,0.00,VWS V14.01,2013-10-03 06:16:00,
2013-10-03 02:21:00,58.5,53.7,30.03,SE,135,0.0,0.0,84,0.00,,CLR,0.00,VWS V14.01,2013-10-03 06:21:00,
2013-10-03 02:26:00,58.5,53.5,30.03,SE,135,0.0,0.0,83,0.00,,CLR,0.00,VWS V14.01,2013-10-03 06:26:00,
2013-10-03 02:31:00,58.5,53.7,30.03,SE,135,0.0,0.0,84,0.00,,CLR,0.00,VWS V14.01,2013-10-03 06:31:00,
2013-10-03 02:36:00,58.5,53.7,30.03,SE,135,0.0,0.0,84,0.00,,CLR,0.00,VWS V14.01,2013-10-03 06:36:00,
2013-10-03 02:41:00,58.5,53.9,30.03,SE,135,0.0,0.0,85,0.00,,CLR,0.00,VWS V14.01,2013-10-03 06:41:00,
2013-10-03 02:46:00,58.5,53.0,30.03,SE,135,0.0,0.0,82,0.00,,CLR,0.00,VWS V14.01,2013-10-03 06:46:00,
2013-10-03 02:51:00,58.8,52.2,30.03,SE,135,0.0,0.0,79,0.00,,CLR,0.00,VWS V14.01,2013-10-03 06:51:00,
2013-10-03 02:56:00,59.0,50.5,30.03,SE,135,0.0,0.0,73,0.00,,CLR,0.00,VWS V14.01,2013-10-03 06:56:00,
2013-10-03 03:01:00,59.0,51.2,30.03,SE,135,0.0,0.0,75,0.00,,CLR,0.00,VWS V14.01,2013-10-03 07:01:00,
2013-10-03 03:06:00,58.5,51.2,30.03,SE,135,0.0,0.0,77,0.00,,CLR,0.00,VWS V14.01,2013-10-03 07:06:00,
2013-10-03 03:11:00,58.3,51.2,30.03,SE,135,0.0,0.0,77,0.00,,CLR,0.00,VWS V14.01,2013-10-03 07:11:00,
2013-10-03 03:16:00,58.1,51.3,30.03,SE,135,0.0,0.0,78,0.00,,CLR,0.00,VWS V14.01,2013-10-03 07:16:00,
2013-10-03 03:21:00,58.1,51.3,30.06,SE,135,0.0,0.0,78,0.00,,CLR,0.00,VWS V14.01,2013-10-03 07:21:00,
2013-10-03 03:26:00,58.1,50.4,30.06,SE,135,0.0,0.0,75,0.00,,CLR,0.00,VWS V14.01,2013-10-03 07:26:00,
2013-10-03 03:31:00,58.5,50.7,30.06,SE,135,0.0,0.0,75,0.00,,CLR,0.00,VWS V14.01,2013-10-03 07:31:00,
2013-10-03 03:36:00,57.9,49.9,30.06,SE,135,0.0,0.0,75,0.00,,CLR,0.00,VWS V14.01,2013-10-03 07:36:00,
2013-10-03 03:41:00,57.4,49.7,30.06,SE,135,0.0,0.0,75,0.00,,CLR,0.00,VWS V14.01,2013-10-03 07:41:00,
2013-10-03 03:46:00,56.8,49.4,30.06,SE,135,0.0,0.0,76,0.00,,CLR,0.00,VWS V14.01,2013-10-03 07:46:00,
2013-10-03 03:51:00,56.3,49.1,30.06,SE,135,0.0,0.0,77,0.00,,CLR,0.00,VWS V14.01,2013-10-03 07:51:00,
2013-10-03 03:56:00,55.8,48.8,30.06,SE,135,0.0,0.0,77,0.00,,CLR,0.00,VWS V14.01,2013-10-03 07:56:00,
2013-10-03 04:01:00,55.2,48.5,30.06,SE,135,0.0,0.0,78,0.00,,CLR,0.00,VWS V14.01,2013-10-03 08:01:00,
2013-10-03 04:06:00,54.9,48.4,30.06,SE,135,0.0,0.0,79,0.00,,CLR,0.00,VWS V14.01,2013-10-03 08:06:00,
2013-10-03 04:11:00,54.7,48.5,30.06,SE,135,0.0,0.0,79,0.00,,CLR,0.00,VWS V14.01,2013-10-03 08:11:00,
2013-10-03 04:16:00,54.7,48.9,30.06,SE,135,0.0,0.0,81,0.00,,CLR,0.00,VWS V14.01,2013-10-03 08:16:00,
2013-10-03 04:21:00,54.7,48.9,30.06,SE,135,0.0,0.0,81,0.00,,CLR,0.00,VWS V14.01,2013-10-03 08:21:00,
2013-10-03 04:26:00,54.7,48.9,30.06,SE,135,0.0,0.0,81,0.00,,CLR,0.00,VWS V14.01,2013-10-03 08:26:00,
2013-10-03 04:31:00,54.5,48.7,30.06,SE,135,0.0,0.0,81,0.00,,CLR,0.00,VWS V14.01,2013-10-03 08:31:00,
2013-10-03 04:36:00,54.1,48.2,30.06,SE,135,0.0,0.0,80,0.00,,CLR,0.00,VWS V14.01,2013-10-03 08:36:00,
2013-10-03 04:41:00,54.0,48.2,30.06,SE,135,0.0,0.0,81,0.00,,CLR,0.00,VWS V14.01,2013-10-03 08:41:00,
2013-10-03 04:46:00,54.0,48.4,30.06,SE,135,0.0,0.0,81,0.00,,CLR,0.00,VWS V14.01,2013-10-03 08:46:00,
2013-10-03 04:51:00,53.8,48.0,30.06,SE,135,0.0,0.0,81,0.00,,CLR,0.00,VWS V14.01,2013-10-03 08:51:00,
2013-10-03 04:56:00,53.6,47.6,30.06,SE,135,0.0,0.0,80,0.00,,CLR,0.00,VWS V14.01,2013-10-03 08:56:00,
2013-10-03 05:01:00,53.2,47.5,30.06,SE,135,0.0,0.0,81,0.00,,CLR,0.00,VWS V14.01,2013-10-03 09:01:00,
2013-10-03 05:06:00,53.2,47.7,30.06,SE,135,0.0,0.0,81,0.00,,CLR,0.00,VWS V14.01,2013-10-03 09:06:00,
2013-10-03 05:11:00,53.2,48.2,30.06,SE,135,0.0,0.0,83,0.00,,CLR,0.00,VWS V14.01,2013-10-03 09:11:00,
2013-10-03 05:16:00,53.1,48.0,30.06,SE,135,0.0,0.0,83,0.00,,CLR,0.00,VWS V14.01,2013-10-03 09:16:00,
2013-10-03 05:21:00,53.1,48.0,30.06,SE,135,0.0,0.0,83,0.00,,CLR,0.00,VWS V14.01,2013-10-03 09:21:00,
2013-10-03 05:26:00,53.1,48.0,30.06,SE,135,0.0,0.0,83,0.00,,CLR,0.00,VWS V14.01,2013-10-03 09:26:00,
2013-10-03 05:31:00,53.2,48.2,30.06,SE,135,0.0,0.0,83,0.00,,CLR,0.00,VWS V14.01,2013-10-03 09:31:00,
2013-10-03 05:36:00,53.2,47.5,30.06,SE,135,0.0,0.0,81,0.00,,CLR,0.00,VWS V14.01,2013-10-03 09:36:00,
2013-10-03 05:41:00,52.9,46.5,30.06,SE,135,0.0,0.0,79,0.00,,CLR,0.00,VWS V14.01,2013-10-03 09:41:00,
2013-10-03 05:46:00,52.5,46.1,30.06,SE,135,0.0,0.0,79,0.00,,CLR,0.00,VWS V14.01,2013-10-03 09:46:00,
2013-10-03 05:51:00,52.0,45.6,30.06,SE,135,0.0,0.0,79,0.00,,CLR,0.00,VWS V14.01,2013-10-03 09:51:00,
2013-10-03 05:56:00,51.6,45.5,30.06,SE,135,0.0,0.0,79,0.00,,CLR,0.00,VWS V14.01,2013-10-03 09:56:00,
2013-10-03 06:01:00,51.1,45.6,30.06,SE,135,0.0,0.0,81,0.00,,,0.00,VWS V14.01,2013-10-03 10:01:00,
2013-10-03 06:06:00,50.7,45.7,30.06,SE,135,0.0,0.0,83,0.00,,,0.00,VWS V14.01,2013-10-03 10:06:00,
2013-10-03 06:11:00,50.5,45.9,30.06,SE,135,0.0,0.0,84,0.00,,,0.00,VWS V14.01,2013-10-03 10:11:00,
2013-10-03 06:16:00,50.4,46.0,30.06,SE,135,0.0,0.0,85,0.00,,,0.00,VWS V14.01,2013-10-03 10:16:00,
2013-10-03 06:21:00,50.4,46.2,30.06,SE,135,0.0,0.0,86,0.00,,,0.00,VWS V14.01,2013-10-03 10:21:00,
2013-10-03 06:26:00,50.5,46.8,30.06,SE,135,0.0,0.0,87,0.00,,,0.00,VWS V14.01,2013-10-03 10:26:00,
2013-10-03 06:31:00,50.7,47.2,30.06,SE,135,0.0,0.0,88,0.00,,,0.00,VWS V14.01,2013-10-03 10:31:00,
2013-10-03 06:36:00,50.7,47.0,30.06,SE,135,0.0,0.0,87,0.00,,,0.00,VWS V14.01,2013-10-03 10:36:00,
2013-10-03 06:41:00,50.7,46.8,30.06,SE,135,0.0,0.0,86,0.00,,,0.00,VWS V14.01,2013-10-03 10:41:00,
2013-10-03 06:46:00,50.5,46.4,30.06,SE,135,0.0,0.0,86,0.00,,,0.00,VWS V14.01,2013-10-03 10:46:00,
2013-10-03 06:51:00,50.7,46.8,30.09,SE,135,0.0,0.0,86,0.00,,,0.00,VWS V14.01,2013-10-03 10:51:00,
2013-10-03 06:56:00,50.9,46.9,30.09,SE,135,0.0,0.0,86,0.00,,,0.00,VWS V14.01,2013-10-03 10:56:00,
2013-10-03 07:01:00,51.1,47.1,30.09,SE,135,0.0,0.0,86,0.00,,,0.00,VWS V14.01,2013-10-03 11:01:00,
2013-10-03 07:06:00,50.9,46.5,30.09,SE,135,0.0,0.0,85,0.00,,,0.00,VWS V14.01,2013-10-03 11:06:00,
2013-10-03 07:11:00,50.7,45.9,30.09,SE,135,0.0,0.0,83,0.00,,,0.00,VWS V14.01,2013-10-03 11:11:00,
2013-10-03 07:16:00,50.7,45.7,30.09,SE,135,0.0,0.0,83,0.00,,,0.00,VWS V14.01,2013-10-03 11:16:00,
2013-10-03 07:21:00,50.5,45.7,30.09,SE,135,0.0,0.0,83,0.00,,,0.00,VWS V14.01,2013-10-03 11:21:00,
2013-10-03 07:26:00,50.5,45.9,30.09,SE,135,0.0,0.0,84,0.00,,,0.00,VWS V14.01,2013-10-03 11:26:00,
2013-10-03 07:31:00,50.9,46.5,30.09,SE,135,0.0,0.0,85,0.00,,,0.00,VWS V14.01,2013-10-03 11:31:00,
2013-10-03 07:36:00,50.9,46.7,30.09,SE,135,0.0,0.0,86,0.00,,,0.00,VWS V14.01,2013-10-03 11:36:00,
2013-10-03 07:41:00,51.1,46.7,30.09,SE,135,0.0,0.0,85,0.00,,,0.00,VWS V14.01,2013-10-03 11:41:00,
2013-10-03 07:46:00,51.3,46.9,30.09,SE,135,0.0,0.0,85,0.00,,,0.00,VWS V14.01,2013-10-03 11:46:00,
2013-10-03 07:51:00,51.6,47.0,30.09,SE,135,0.0,0.0,84,0.00,,,0.00,VWS V14.01,2013-10-03 11:51:00,
2013-10-03 07:56:00,51.6,46.6,30.09,SE,135,0.0,0.0,83,0.00,,,0.00,VWS V14.01,2013-10-03 11:56:00,
2013-10-03 08:01:00,51.8,46.5,30.09,SE,135,0.0,0.0,82,0.00,,,0.00,VWS V14.01,2013-10-03 12:01:00,
2013-10-03 08:06:00,52.0,46.7,30.09,SE,135,0.0,0.0,82,0.00,,,0.00,VWS V14.01,2013-10-03 12:06:00,
2013-10-03 08:11:00,52.3,47.1,30.09,SE,135,0.0,0.0,82,0.00,,,0.00,VWS V14.01,2013-10-03 12:11:00,
2013-10-03 08:16:00,52.7,47.4,30.09,SE,135,0.0,0.0,82,0.00,,,0.00,VWS V14.01,2013-10-03 12:16:00,
2013-10-03 08:21:00,53.1,48.2,30.09,SE,135,0.0,0.0,83,0.00,,,0.00,VWS V14.01,2013-10-03 12:21:00,
2013-10-03 08:26:00,53.6,48.9,30.09,SE,135,0.0,0.0,84,0.00,,,0.00,VWS V14.01,2013-10-03 12:26:00,
2013-10-03 08:31:00,54.3,50.1,30.09,SE,135,0.0,0.0,86,0.00,,,0.00,VWS V14.01,2013-10-03 12:31:00,
2013-10-03 08:36:00,55.0,50.6,30.12,SE,135,0.0,0.0,85,0.00,,,0.00,VWS V14.01,2013-10-03 12:36:00,
2013-10-03 08:41:00,55.8,50.8,30.12,SE,135,0.0,0.0,83,0.00,,,0.00,VWS V14.01,2013-10-03 12:41:00,
2013-10-03 08:46:00,56.7,50.8,30.12,SE,135,0.0,0.0,81,0.00,,,0.00,VWS V14.01,2013-10-03 12:46:00,
2013-10-03 08:51:00,57.4,50.1,30.12,SE,135,0.0,0.0,77,0.00,,,0.00,VWS V14.01,2013-10-03 12:51:00,
2013-10-03 08:56:00,58.1,50.4,30.12,SE,135,0.0,0.0,75,0.00,,,0.00,VWS V14.01,2013-10-03 12:56:00,
2013-10-03 09:01:00,58.6,50.6,30.12,SE,135,0.0,0.0,75,0.00,,CLR,0.00,VWS V14.01,2013-10-03 13:01:00,
2013-10-03 09:06:00,59.0,50.5,30.12,SE,135,0.0,0.0,73,0.00,,CLR,0.00,VWS V14.01,2013-10-03 13:06:00,
2013-10-03 09:11:00,59.4,50.6,30.12,SE,135,0.0,0.0,73,0.00,,CLR,0.00,VWS V14.01,2013-10-03 13:11:00,
2013-10-03 09:16:00,59.9,51.1,30.12,SE,135,0.0,0.0,73,0.00,,CLR,0.00,VWS V14.01,2013-10-03 13:16:00,
2013-10-03 09:21:00,60.3,51.2,30.12,SE,135,0.0,0.0,72,0.00,,CLR,0.00,VWS V14.01,2013-10-03 13:21:00,
2013-10-03 09:26:00,60.6,51.5,30.12,SE,136,0.0,0.0,72,0.00,,CLR,0.00,VWS V14.01,2013-10-03 13:26:00,
2013-10-03 09:31:00,61.0,51.4,30.12,SE,136,0.0,0.0,71,0.00,,CLR,0.00,VWS V14.01,2013-10-03 13:31:00,
2013-10-03 09:36:00,61.5,51.6,30.12,SE,136,0.0,0.0,70,0.00,,CLR,0.00,VWS V14.01,2013-10-03 13:36:00,
2013-10-03 09:41:00,61.9,51.5,30.12,SE,136,0.0,0.0,69,0.00,,CLR,0.00,VWS V14.01,2013-10-03 13:41:00,
2013-10-03 09:46:00,62.4,52.0,30.12,SE,136,0.0,0.0,69,0.00,,CLR,0.00,VWS V14.01,2013-10-03 13:46:00,
2013-10-03 09:51:00,63.0,52.0,30.12,SE,136,0.0,0.0,67,0.00,,CLR,0.00,VWS V14.01,2013-10-03 13:51:00,
2013-10-03 09:56:00,63.3,52.3,30.12,SE,136,0.0,0.0,67,0.00,,CLR,0.00,VWS V14.01,2013-10-03 13:56:00,
2013-10-03 10:01:00,64.0,52.4,30.12,SE,136,0.0,0.0,66,0.00,,CLR,0.00,VWS V14.01,2013-10-03 14:01:00,
2013-10-03 10:06:00,64.4,52.8,30.12,SE,136,0.0,0.0,66,0.00,,CLR,0.00,VWS V14.01,2013-10-03 14:06:00,
2013-10-03 10:11:00,64.8,52.8,30.12,SE,136,0.0,0.0,65,0.00,,CLR,0.00,VWS V14.01,2013-10-03 14:11:00,
2013-10-03 10:16:00,65.1,53.2,30.12,SE,136,0.0,0.0,65,0.00,,CLR,0.00,VWS V14.01,2013-10-03 14:16:00,
2013-10-03 10:21:00,65.5,53.2,30.12,SE,136,0.0,0.0,65,0.00,,CLR,0.00,VWS V14.01,2013-10-03 14:21:00,
2013-10-03 10:26:00,65.8,53.3,30.12,SE,136,0.0,0.0,64,0.00,,CLR,0.00,VWS V14.01,2013-10-03 14:26:00,
2013-10-03 10:31:00,66.2,52.7,30.12,SE,136,0.0,0.0,62,0.00,,CLR,0.00,VWS V14.01,2013-10-03 14:31:00,
2013-10-03 10:36:00,66.6,53.1,30.12,SE,136,0.0,0.0,62,0.00,,CLR,0.00,VWS V14.01,2013-10-03 14:36:00,
2013-10-03 10:41:00,66.7,53.0,30.12,SE,136,0.0,0.0,61,0.00,,CLR,0.00,VWS V14.01,2013-10-03 14:41:00,
2013-10-03 10:46:00,67.1,53.0,30.12,SE,136,0.0,0.0,60,0.00,,CLR,0.00,VWS V14.01,2013-10-03 14:46:00,
2013-10-03 10:51:00,67.5,53.0,30.12,SE,136,0.0,0.0,60,0.00,,CLR,0.00,VWS V14.01,2013-10-03 14:51:00,
2013-10-03 10:56:00,67.5,53.0,30.12,SE,136,0.0,0.0,60,0.00,,CLR,0.00,VWS V14.01,2013-10-03 14:56:00,
2013-10-03 11:01:00,67.6,53.5,30.12,SE,136,0.0,0.0,60,0.00,,BKN080,0.00,VWS V14.01,2013-10-03 15:01:00,
2013-10-03 11:06:00,67.8,53.7,30.12,SE,136,0.0,0.0,60,0.00,,BKN080,0.00,VWS V14.01,2013-10-03 15:06:00,
2013-10-03 11:10:00,68.0,53.2,30.12,SE,136,0.0,0.0,59,0.00,,BKN080,0.00,VWS V14.01,2013-10-03 15:10:00,
2013-10-03 11:15:00,68.2,53.4,30.12,SE,136,0.0,0.0,59,0.00,,BKN080,0.00,VWS V14.01,2013-10-03 15:15:00,
2013-10-03 11:20:00,68.5,53.4,30.12,SE,136,0.0,0.0,58,0.00,,BKN080,0.00,VWS V14.01,2013-10-03 15:20:00,
2013-10-03 11:25:00,68.9,53.4,30.12,SE,136,0.0,0.0,58,0.00,,BKN080,0.00,VWS V14.01,2013-10-03 15:25:00,
2013-10-03 11:30:00,69.3,53.8,30.12,SE,136,0.0,0.0,58,0.00,,BKN080,0.00,VWS V14.01,2013-10-03 15:30:00,
2013-10-03 11:35:00,69.4,53.9,30.12,SE,136,0.0,0.0,58,0.00,,BKN080,0.00,VWS V14.01,2013-10-03 15:35:00,
2013-10-03 11:40:00,69.6,54.1,30.12,SE,136,0.0,0.0,58,0.00,,BKN080,0.00,VWS V14.01,2013-10-03 15:40:00,
2013-10-03 11:45:00,69.8,54.0,30.12,SE,136,0.0,0.0,57,0.00,,BKN080,0.00,VWS V14.01,2013-10-03 15:45:00,
2013-10-03 11:50:00,70.0,54.1,30.12,SE,136,0.0,0.0,57,0.00,,BKN080,0.00,VWS V14.01,2013-10-03 15:50:00,
2013-10-03 11:55:00,70.0,54.1,30.12,SE,136,0.0,0.0,57,0.00,,BKN080,0.00,VWS V14.01,2013-10-03 15:55:00,
2013-10-03 12:00:00,70.2,54.3,30.12,SE,136,0.0,0.0,57,0.00,,FEW075,0.00,VWS V14.01,2013-10-03 16:00:00,
2013-10-03 12:05:00,70.3,52.8,30.09,SE,136,0.0,0.0,54,0.00,,FEW075,0.00,VWS V14.01,2013-10-03 16:05:00,
2013-10-03 12:10:00,70.7,54.8,30.09,SE,136,0.0,0.0,57,0.00,,FEW075,0.00,VWS V14.01,2013-10-03 16:10:00,
2013-10-03 12:15:00,70.9,52.2,30.09,SE,136,0.0,0.0,52,0.00,,FEW075,0.00,VWS V14.01,2013-10-03 16:15:00,
2013-10-03 12:20:00,71.2,53.6,30.09,SE,136,0.0,0.0,54,0.00,,FEW075,0.00,VWS V14.01,2013-10-03 16:20:00,
2013-10-03 12:25:00,71.2,53.6,30.09,SE,136,0.0,0.0,54,0.00,,FEW075,0.00,VWS V14.01,2013-10-03 16:25:00,
2013-10-03 12:30:00,71.2,53.6,30.09,SE,136,0.0,0.0,54,0.00,,FEW075,0.00,VWS V14.01,2013-10-03 16:30:00,
2013-10-03 12:35:00,71.2,53.6,30.09,SE,136,0.0,0.0,54,0.00,,FEW075,0.00,VWS V14.01,2013-10-03 16:35:00,
2013-10-03 12:40:00,71.2,53.6,30.09,SE,136,0.0,0.0,54,0.00,,FEW075,0.00,VWS V14.01,2013-10-03 16:40:00,
2013-10-03 12:45:00,71.4,54.5,30.09,SE,136,0.0,0.0,55,0.00,,FEW075,0.00,VWS V14.01,2013-10-03 16:45:00,
2013-10-03 12:50:00,71.6,54.6,30.09,SE,136,0.0,0.0,55,0.00,,FEW075,0.00,VWS V14.01,2013-10-03 16:50:00,
2013-10-03 12:55:00,71.6,54.6,30.09,SE,136,0.0,0.0,55,0.00,,FEW075,0.00,VWS V14.01,2013-10-03 16:55:00,
2013-10-03 13:00:00,72.0,56.0,30.09,SE,136,0.0,0.0,57,0.00,,BKN090,0.00,VWS V14.01,2013-10-03 17:00:00,
2013-10-03 13:05:00,72.3,56.0,30.09,SE,136,0.0,0.0,56,0.00,,BKN090,0.00,VWS V14.01,2013-10-03 17:05:00,
2013-10-03 13:10:00,72.5,56.1,30.09,SE,136,0.0,0.0,56,0.00,,BKN090,0.00,VWS V14.01,2013-10-03 17:10:00,
2013-10-03 13:15:00,72.5,56.1,30.09,SE,136,0.0,0.0,56,0.00,,BKN090,0.00,VWS V14.01,2013-10-03 17:15:00,
2013-10-03 13:20:00,72.5,56.1,30.06,SE,136,0.0,0.0,56,0.00,,BKN090,0.00,VWS V14.01,2013-10-03 17:20:00,
2013-10-03 13:25:00,73.0,56.6,30.06,SE,136,0.0,0.0,56,0.00,,BKN090,0.00,VWS V14.01,2013-10-03 17:25:00,
2013-10-03 13:30:00,73.2,57.1,30.06,SE,136,0.0,0.0,57,0.00,,BKN090,0.00,VWS V14.01,2013-10-03 17:30:00,
2013-10-03 13:35:00,73.4,57.0,30.06,SE,136,0.0,0.0,56,0.00,,BKN090,0.00,VWS V14.01,2013-10-03 17:35:00,
2013-10-03 13:40:00,73.2,56.8,30.06,SE,136,0.0,0.0,56,0.00,,BKN090,0.00,VWS V14.01,2013-10-03 17:40:00,
2013-10-03 13:45:00,73.0,56.6,30.06,SE,136,0.0,0.0,56,0.00,,BKN090,0.00,VWS V14.01,2013-10-03 17:45:00,
2013-10-03 13:50:00,72.7,56.6,30.06,SE,136,0.0,0.0,57,0.00,,BKN090,0.00,VWS V14.01,2013-10-03 17:50:00,
2013-10-03 13:55:00,72.7,56.6,30.06,SE,136,0.0,0.0,57,0.00,,BKN090,0.00,VWS V14.01,2013-10-03 17:55:00,
2013-10-03 14:00:00,72.5,56.5,30.06,SE,136,0.0,0.0,57,0.00,,OVC070,0.00,VWS V14.01,2013-10-03 18:00:00,
2013-10-03 14:05:00,72.3,56.3,30.06,SE,136,0.0,0.0,57,0.00,,OVC070,0.00,VWS V14.01,2013-10-03 18:05:00,
2013-10-03 14:10:00,72.1,56.1,30.06,SE,136,0.0,0.0,57,0.00,,OVC070,0.00,VWS V14.01,2013-10-03 18:10:00,
2013-10-03 14:15:00,72.1,56.1,30.06,SE,136,0.0,0.0,57,0.00,,OVC070,0.00,VWS V14.01,2013-10-03 18:15:00,
2013-10-03 14:20:00,72.0,56.0,30.06,SE,136,0.0,0.0,57,0.00,,OVC070,0.00,VWS V14.01,2013-10-03 18:20:00,
2013-10-03 14:25:00,72.0,56.3,30.06,SE,136,0.0,0.0,58,0.00,,OVC070,0.00,VWS V14.01,2013-10-03 18:25:00,
2013-10-03 14:30:00,72.0,56.3,30.06,SE,124,0.0,0.0,58,0.00,,OVC070,0.00,VWS V14.01,2013-10-03 18:30:00,
2013-10-03 14:35:00,72.1,56.8,30.06,SE,124,0.0,0.0,58,0.00,,OVC070,0.00,VWS V14.01,2013-10-03 18:35:00,
2013-10-03 14:40:00,72.1,56.8,30.06,SE,124,0.0,0.0,58,0.00,,OVC070,0.00,VWS V14.01,2013-10-03 18:40:00,
2013-10-03 14:45:00,72.0,56.9,30.06,SE,126,0.0,0.0,59,0.00,,OVC070,0.00,VWS V14.01,2013-10-03 18:45:00,
2013-10-03 14:50:00,72.1,56.8,30.06,SE,124,0.0,0.0,58,0.00,,OVC070,0.00,VWS V14.01,2013-10-03 18:50:00,
2013-10-03 14:55:00,72.0,56.6,30.06,SE,124,0.0,0.0,58,0.00,,OVC070,0.00,VWS V14.01,2013-10-03 18:55:00,
2013-10-03 15:00:00,71.6,56.3,30.06,SE,124,0.0,0.0,58,0.00,,BKN055,0.00,VWS V14.01,2013-10-03 19:00:00,
2013-10-03 15:05:00,71.4,56.4,30.06,SE,124,0.0,0.0,59,0.00,,BKN055,0.00,VWS V14.01,2013-10-03 19:05:00,
2013-10-03 15:10:00,71.1,56.4,30.06,SE,124,0.0,0.0,60,0.00,,BKN055,0.00,VWS V14.01,2013-10-03 19:10:00,
2013-10-03 15:15:00,70.9,55.9,30.06,SE,124,0.0,0.0,59,0.00,,BKN055,0.00,VWS V14.01,2013-10-03 19:15:00,
2013-10-03 15:20:00,70.7,55.8,30.06,SE,124,0.0,0.0,59,0.00,,BKN055,0.00,VWS V14.01,2013-10-03 19:20:00,
2013-10-03 15:25:00,70.5,55.6,30.06,SE,124,0.0,0.0,59,0.00,,BKN055,0.00,VWS V14.01,2013-10-03 19:25:00,
2013-10-03 15:30:00,70.3,56.0,30.06,SE,124,0.0,0.0,60,0.00,,BKN055,0.00,VWS V14.01,2013-10-03 19:30:00,
2013-10-03 15:35:00,70.2,55.2,30.06,SE,124,0.0,0.0,59,0.00,,BKN055,0.00,VWS V14.01,2013-10-03 19:35:00,
2013-10-03 15:40:00,70.2,54.9,30.06,ESE,106,0.0,0.0,58,0.00,,BKN055,0.00,VWS V14.01,2013-10-03 19:40:00,
2013-10-03 15:45:00,70.3,55.1,30.06,SE,137,0.0,0.0,58,0.00,,BKN055,0.00,VWS V14.01,2013-10-03 19:45:00,
2013-10-03 15:50:00,70.3,55.4,30.06,SE,137,0.0,0.0,59,0.00,,BKN055,0.00,VWS V14.01,2013-10-03 19:50:00,
2013-10-03 15:55:00,70.2,55.2,30.06,East,101,0.0,0.0,59,0.00,,BKN055,0.00,VWS V14.01,2013-10-03 19:55:00,
2013-10-03 16:00:00,70.0,55.4,30.06,East,101,0.0,0.0,60,0.00,,BKN055,0.00,VWS V14.01,2013-10-03 20:00:00,
2013-10-03 16:05:00,69.8,55.2,30.06,East,101,0.0,0.0,60,0.00,,BKN041,0.00,VWS V14.01,2013-10-03 20:05:00,
2013-10-03 16:10:00,69.6,55.4,30.06,East,101,0.0,0.0,60,0.00,,BKN041,0.00,VWS V14.01,2013-10-03 20:10:00,
2013-10-03 16:15:00,69.4,55.5,30.06,East,101,0.0,0.0,61,0.00,,BKN041,0.00,VWS V14.01,2013-10-03 20:15:00,
2013-10-03 16:20:00,69.1,55.2,30.06,East,101,0.0,0.0,61,0.00,,BKN041,0.00,VWS V14.01,2013-10-03 20:20:00,
2013-10-03 16:25:00,68.9,55.0,30.06,East,101,0.0,0.0,61,0.00,,BKN041,0.00,VWS V14.01,2013-10-03 20:25:00,
2013-10-03 16:30:00,68.7,55.1,30.06,East,101,0.0,0.0,62,0.00,,BKN041,0.00,VWS V14.01,2013-10-03 20:30:00,
2013-10-03 16:35:00,68.5,55.5,30.03,East,101,0.0,0.0,63,0.00,,BKN041,0.00,VWS V14.01,2013-10-03 20:35:00,
2013-10-03 16:40:00,68.4,55.4,30.03,East,101,0.0,0.0,63,0.00,,BKN041,0.00,VWS V14.01,2013-10-03 20:40:00,
2013-10-03 16:45:00,68.2,55.5,30.03,East,101,0.0,0.0,64,0.00,,BKN041,0.00,VWS V14.01,2013-10-03 20:45:00,
2013-10-03 16:50:00,68.0,55.3,30.06,East,101,0.0,0.0,64,0.00,,BKN041,0.00,VWS V14.01,2013-10-03 20:50:00,
2013-10-03 16:55:00,67.8,55.5,30.06,East,101,0.0,0.0,65,0.00,,BKN041,0.00,VWS V14.01,2013-10-03 20:55:00,
2013-10-03 17:00:00,67.6,55.3,30.06,East,101,0.0,0.0,65,0.00,,SCT029,0.00,VWS V14.01,2013-10-03 21:00:00,
2013-10-03 17:05:00,67.5,55.1,30.06,East,101,0.0,0.0,65,0.00,,SCT029,0.00,VWS V14.01,2013-10-03 21:05:00,
2013-10-03 17:10:00,67.3,55.2,30.06,East,101,0.0,0.0,65,0.00,,SCT029,0.00,VWS V14.01,2013-10-03 21:10:00,
2013-10-03 17:15:00,67.1,55.0,30.06,East,101,0.0,0.0,65,0.00,,SCT029,0.00,VWS V14.01,2013-10-03 21:15:00,
2013-10-03 17:20:00,66.9,54.9,30.06,East,101,0.0,0.0,65,0.00,,SCT029,0.00,VWS V14.01,2013-10-03 21:20:00,
2013-10-03 17:25:00,66.7,55.0,30.06,East,101,0.0,0.0,66,0.00,,SCT029,0.00,VWS V14.01,2013-10-03 21:25:00,
2013-10-03 17:30:00,66.4,54.7,30.06,East,101,0.0,0.0,66,0.00,,SCT029,0.00,VWS V14.01,2013-10-03 21:30:00,
2013-10-03 17:35:00,66.2,54.5,30.06,East,100,0.0,0.0,66,0.00,,SCT029,0.00,VWS V14.01,2013-10-03 21:35:00,
2013-10-03 17:40:00,66.0,54.6,30.06,East,101,0.0,0.0,67,0.00,,SCT029,0.00,VWS V14.01,2013-10-03 21:40:00,
2013-10-03 17:45:00,66.0,54.9,30.06,East,101,0.0,0.0,67,0.00,,SCT029,0.00,VWS V14.01,2013-10-03 21:45:00,
2013-10-03 17:50:00,65.8,54.7,30.06,East,101,0.0,0.0,67,0.00,,SCT029,0.00,VWS V14.01,2013-10-03 21:50:00,
2013-10-03 17:55:00,65.7,55.1,30.06,East,101,0.0,0.0,69,0.00,,SCT029,0.00,VWS V14.01,2013-10-03 21:55:00,
2013-10-03 18:00:00,65.5,54.9,30.06,East,101,0.0,0.0,69,0.00,,SCT029,0.00,VWS V14.01,2013-10-03 22:00:00,
2013-10-03 18:05:00,65.1,54.5,30.06,East,101,0.0,0.0,69,0.00,,SCT090,0.00,VWS V14.01,2013-10-03 22:05:00,
2013-10-03 18:10:00,64.9,54.4,30.06,East,101,0.0,0.0,69,0.00,,SCT090,0.00,VWS V14.01,2013-10-03 22:10:00,
2013-10-03 18:15:00,64.8,54.7,30.06,East,101,0.0,0.0,70,0.00,,SCT090,0.00,VWS V14.01,2013-10-03 22:15:00,
2013-10-03 18:20:00,64.6,54.6,30.06,East,101,0.0,0.0,70,0.00,,SCT090,0.00,VWS V14.01,2013-10-03 22:20:00,
2013-10-03 18:25:00,64.4,54.9,30.06,East,101,0.0,0.0,71,0.00,,SCT090,0.00,VWS V14.01,2013-10-03 22:25:00,
2013-10-03 18:30:00,64.0,54.6,30.06,East,101,0.0,0.0,71,0.00,,SCT090,0.00,VWS V14.01,2013-10-03 22:30:00,
2013-10-03 18:35:00,63.9,54.7,30.06,East,101,0.0,0.0,72,0.00,,SCT090,0.00,VWS V14.01,2013-10-03 22:35:00,
2013-10-03 18:40:00,63.7,54.5,30.06,East,101,0.0,0.0,72,0.00,,SCT090,0.00,VWS V14.01,2013-10-03 22:40:00,
2013-10-03 18:45:00,63.5,54.3,30.06,East,101,0.0,0.0,72,0.00,,SCT090,0.00,VWS V14.01,2013-10-03 22:45:00,
2013-10-03 18:50:00,63.5,54.8,30.06,East,101,0.0,0.0,73,0.00,,SCT090,0.00,VWS V14.01,2013-10-03 22:50:00,
2013-10-03 18:55:00,63.1,54.7,30.06,East,101,0.0,0.0,74,0.00,,SCT090,0.00,VWS V14.01,2013-10-03 22:55:00,
2013-10-03 19:00:00,63.1,54.7,30.06,East,101,0.0,0.0,74,0.00,,SCT090,0.00,VWS V14.01,2013-10-03 23:00:00,
2013-10-03 19:05:00,63.0,54.8,30.06,East,101,0.0,0.0,75,0.00,,,0.00,VWS V14.01,2013-10-03 23:05:00,
2013-10-03 19:10:00,62.8,54.9,30.06,East,101,0.0,0.0,75,0.00,,,0.00,VWS V14.01,2013-10-03 23:10:00,
2013-10-03 19:15:00,62.6,55.0,30.06,East,101,0.0,0.0,76,0.00,,,0.00,VWS V14.01,2013-10-03 23:15:00,
2013-10-03 19:20:00,62.4,54.8,30.06,East,101,0.0,0.0,76,0.00,,,0.00,VWS V14.01,2013-10-03 23:20:00,
2013-10-03 19:25:00,62.2,54.4,30.06,East,101,0.0,0.0,75,0.00,,,0.00,VWS V14.01,2013-10-03 23:25:00,
2013-10-03 19:30:00,62.1,54.4,30.06,East,101,0.0,0.0,76,0.00,,,0.00,VWS V14.01,2013-10-03 23:30:00,
2013-10-03 19:35:00,62.1,54.4,30.06,East,101,0.0,0.0,76,0.00,,,0.00,VWS V14.01,2013-10-03 23:35:00,
2013-10-03 19:40:00,61.9,54.3,30.06,East,101,0.0,0.0,76,0.00,,,0.00,VWS V14.01,2013-10-03 23:40:00,
2013-10-03 19:45:00,61.7,54.1,30.06,East,101,0.0,0.0,76,0.00,,,0.00,VWS V14.01,2013-10-03 23:45:00,
2013-10-03 19:50:00,61.5,53.9,30.06,East,101,0.0,0.0,76,0.00,,,0.00,VWS V14.01,2013-10-03 23:50:00,
2013-10-03 19:55:00,61.5,54.4,30.06,East,101,0.0,0.0,77,0.00,,,0.00,VWS V14.01,2013-10-03 23:55:00,
2013-10-03 20:00:00,61.3,54.2,30.06,East,101,0.0,0.0,77,0.00,,,0.00,VWS V14.01,2013-10-04 00:00:00,
2013-10-03 20:05:00,61.3,54.2,30.06,East,101,0.0,0.0,77,0.00,,,0.00,VWS V14.01,2013-10-04 00:05:00,
2013-10-03 20:10:00,61.3,54.2,30.06,East,101,0.0,0.0,77,0.00,,,0.00,VWS V14.01,2013-10-04 00:10:00,
2013-10-03 20:15:00,61.3,54.5,30.06,East,101,0.0,0.0,78,0.00,,,0.00,VWS V14.01,2013-10-04 00:15:00,
2013-10-03 20:20:00,61.2,54.3,30.06,East,101,0.0,0.0,78,0.00,,,0.00,VWS V14.01,2013-10-04 00:20:00,
2013-10-03 20:25:00,61.2,54.3,30.06,East,101,0.0,0.0,78,0.00,,,0.00,VWS V14.01,2013-10-04 00:25:00,
2013-10-03 20:30:00,61.0,54.1,30.06,East,101,0.0,0.0,78,0.00,,,0.00,VWS V14.01,2013-10-04 00:30:00,
2013-10-03 20:35:00,60.8,53.9,30.06,East,101,0.0,0.0,78,0.00,,,0.00,VWS V14.01,2013-10-04 00:35:00,
2013-10-03 20:40:00,60.6,54.2,30.06,East,101,0.0,0.0,79,0.00,,,0.00,VWS V14.01,2013-10-04 00:40:00,
2013-10-03 20:45:00,60.4,54.3,30.06,East,101,0.0,0.0,80,0.00,,,0.00,VWS V14.01,2013-10-04 00:45:00,
2013-10-03 20:50:00,60.3,54.3,30.06,East,101,0.0,0.0,81,0.00,,,0.00,VWS V14.01,2013-10-04 00:50:00,
2013-10-03 20:55:00,60.1,54.4,30.06,East,101,0.0,0.0,81,0.00,,,0.00,VWS V14.01,2013-10-04 00:55:00,
2013-10-03 21:00:00,59.9,54.4,30.06,East,101,0.0,0.0,82,0.00,,,0.00,VWS V14.01,2013-10-04 01:00:00,
2013-10-03 21:05:00,59.7,54.3,30.06,East,101,0.0,0.0,82,0.00,,,0.00,VWS V14.01,2013-10-04 01:05:00,
2013-10-03 21:10:00,59.5,54.3,30.06,East,101,0.0,0.0,83,0.00,,,0.00,VWS V14.01,2013-10-04 01:10:00,
2013-10-03 21:15:00,59.5,54.5,30.06,East,101,0.0,0.0,83,0.00,,,0.00,VWS V14.01,2013-10-04 01:15:00,
2013-10-03 21:20:00,59.4,54.4,30.09,East,101,0.0,0.0,83,0.00,,,0.00,VWS V14.01,2013-10-04 01:20:00,
2013-10-03 21:25:00,59.2,54.2,30.09,East,101,0.0,0.0,83,0.00,,,0.00,VWS V14.01,2013-10-04 01:25:00,
2013-10-03 21:30:00,59.2,54.4,30.09,East,101,0.0,0.0,84,0.00,,,0.00,VWS V14.01,2013-10-04 01:30:00,
2013-10-03 21:35:00,59.0,54.5,30.09,East,101,0.0,0.0,85,0.00,,,0.00,VWS V14.01,2013-10-04 01:35:00,
2013-10-03 21:40:00,58.8,54.3,30.09,East,101,0.0,0.0,85,0.00,,,0.00,VWS V14.01,2013-10-04 01:40:00,
2013-10-03 21:45:00,58.8,54.3,30.09,East,101,0.0,0.0,85,0.00,,,0.00,VWS V14.01,2013-10-04 01:45:00,
2013-10-03 21:50:00,58.6,54.1,30.09,East,101,0.0,0.0,85,0.00,,,0.00,VWS V14.01,2013-10-04 01:50:00,
2013-10-03 21:55:00,58.6,53.9,30.09,East,101,0.0,0.0,84,0.00,,,0.00,VWS V14.01,2013-10-04 01:55:00,
2013-10-03 22:00:00,58.6,53.9,30.09,East,101,0.0,0.0,84,0.00,,,0.00,VWS V14.01,2013-10-04 02:00:00,
2013-10-03 22:05:00,58.6,54.1,30.09,East,101,0.0,0.0,85,0.00,,,0.00,VWS V14.01,2013-10-04 02:05:00,
2013-10-03 22:10:00,58.5,53.9,30.09,East,101,0.0,0.0,85,0.00,,,0.00,VWS V14.01,2013-10-04 02:10:00,
2013-10-03 22:15:00,58.5,53.7,30.09,East,101,0.0,0.0,84,0.00,,,0.00,VWS V14.01,2013-10-04 02:15:00,
2013-10-03 22:20:00,58.3,53.8,30.09,East,101,0.0,0.0,85,0.00,,,0.00,VWS V14.01,2013-10-04 02:20:00,
2013-10-03 22:25:00,58.1,53.6,30.09,East,101,0.0,0.0,85,0.00,,,0.00,VWS V14.01,2013-10-04 02:25:00,
2013-10-03 22:30:00,58.1,53.6,30.09,East,101,0.0,0.0,85,0.00,,,0.00,VWS V14.01,2013-10-04 02:30:00,
2013-10-03 22:35:00,58.1,53.6,30.09,East,101,0.0,0.0,85,0.00,,,0.00,VWS V14.01,2013-10-04 02:35:00,
2013-10-03 22:40:00,57.9,53.4,30.09,East,101,0.0,0.0,85,0.00,,,0.00,VWS V14.01,2013-10-04 02:40:00,
2013-10-03 22:45:00,57.9,53.4,30.09,East,101,0.0,0.0,85,0.00,,,0.00,VWS V14.01,2013-10-04 02:45:00,
2013-10-03 22:50:00,57.9,53.4,30.09,East,101,0.0,0.0,85,0.00,,,0.00,VWS V14.01,2013-10-04 02:50:00,
2013-10-03 22:55:00,57.9,53.4,30.09,East,101,0.0,0.0,85,0.00,,,0.00,VWS V14.01,2013-10-04 02:55:00,
2013-10-03 23:00:00,57.9,53.2,30.09,East,101,0.0,0.0,84,0.00,,,0.00,VWS V14.01,2013-10-04 03:00:00,
2013-10-03 23:05:00,57.7,53.0,30.09,East,101,0.0,0.0,84,0.00,,,0.00,VWS V14.01,2013-10-04 03:05:00,
2013-10-03 23:10:00,57.6,52.6,30.09,East,101,0.0,0.0,83,0.00,,,0.00,VWS V14.01,2013-10-04 03:10:00,
2013-10-03 23:15:00,57.6,52.8,30.09,East,101,0.0,0.0,84,0.00,,,0.00,VWS V14.01,2013-10-04 03:15:00,
2013-10-03 23:20:00,57.4,52.7,30.09,East,101,0.0,0.0,84,0.00,,,0.00,VWS V14.01,2013-10-04 03:20:00,
2013-10-03 23:25:00,57.4,52.9,30.09,East,100,0.0,0.0,85,0.00,,,0.00,VWS V14.01,2013-10-04 03:25:00,
2013-10-03 23:30:00,57.4,52.9,30.09,East,101,0.0,0.0,85,0.00,,,0.00,VWS V14.01,2013-10-04 03:30:00,
2013-10-03 23:35:00,57.4,52.9,30.09,East,101,0.0,0.0,85,0.00,,,0.00,VWS V14.01,2013-10-04 03:35:00,
2013-10-03 23:40:00,57.4,52.9,30.09,East,101,0.0,0.0,85,0.00,,,0.00,VWS V14.01,2013-10-04 03:40:00,
2013-10-03 23:44:00,57.4,53.1,30.09,East,101,0.0,0.0,86,0.00,,,0.00,VWS V14.01,2013-10-04 03:44:00,
2013-10-03 23:49:00,57.4,52.9,30.09,East,101,0.0,0.0,85,0.00,,,0.00,VWS V14.01,2013-10-04 03:49:00,
2013-10-03 23:54:00,57.2,52.5,30.09,East,101,0.0,0.0,84,0.00,,,0.00,VWS V14.01,2013-10-04 03:54:00,
2013-10-03 23:59:00,57.2,52.2,30.09,East,101,0.0,0.0,83,0.00,,,0.00,VWS V14.01,2013-10-04 03:59:00,